Shungnak AP, Shungnak, AK, AK

7:58 PM AKST on December 09, 2019 (GMT -0900)
Shungnak AP, Shungnak, AK

Weather History for PAGH - October, 2019

Change the Weather History Date:

Tuesday, October 8, 2019

  Actual Average (WUND) Record (WUND)
Temperature  
Mean Temperature 31 °F -  
Max Temperature 34 °F - - (-1)
Min Temperature 28 °F - - (-1)
Degree Days  
Heating Degree Days 34    
Moisture  
Dew Point 30 °F    
Average Humidity 95    
Maximum Humidity 100    
Minimum Humidity 86    
Precipitation  
Precipitation 0.04 in - - ()
Sea Level Pressure  
Sea Level Pressure 29.87 in    
Wind  
Wind Speed 21 mph (ESE)    
Max Wind Speed 28 mph    
Max Gust Speed 37 mph    
Visibility 5 miles    
Events Rain , Snow    
Averages and records for this station are not official NWS values.
T = Trace of Precipitation, MM = Missing Value Source: NWS Daily Summary

Daily Weather History Graph

Daily Weather History Graph

Search for Another Location

Airport or City:

Astronomy

Oct. 08, 2019 Rise Set
Actual Time 9:04 AM AKDT 7:26 PM AKDT
Civil Twilight 8:10 AM AKDT 8:19 PM AKDT
Nautical Twilight 7:09 AM AKDT 9:21 PM AKDT
Astronomical Twilight 6:03 AM AKDT 10:26 PM AKDT
Moon 8:08 PM AKDT (10/8) 12:57 AM AKDT (10/8)
Length of Visible Light 12h 08m
Length of Day
10h 22m
Waxing Gibbous, 79% of the Moon is Illuminated
Oct 8
Waxing Gibbous
Oct 13
Full
Oct 21
Last Quarter
Oct 27
New
Nov 4
First Quarter

Hourly Weather History & Observations

Time (AKDT) Temp. Windchill Dew Point Humidity Pressure Visibility Wind Dir Wind Speed Gust Speed Precip Events Conditions
12:56 AM 30.0 °F 15.7 °F 27.0 °F 88% 29.99 in 3.0 mi ESE 26.5 mph 33.4 mph 0.00 in Snow Light Snow
1:10 AM 30.2 °F 16.8 °F 26.6 °F 86% 29.96 in 2.0 mi ESE 23.0 mph 31.1 mph 0.00 in Snow Light Snow
1:33 AM 30.2 °F 16.5 °F 28.4 °F 93% 29.94 in 1.5 mi ESE 24.2 mph 33.4 mph 0.00 in Snow Light Snow
1:56 AM 28.9 °F 15.1 °F 28.0 °F 96% 29.96 in 1.2 mi East 23.0 mph 36.8 mph 0.00 in Snow Light Snow
2:14 AM 28.4 °F 13.5 °F 28.4 °F 100% 29.92 in 1.0 mi East 26.5 mph 34.5 mph 0.00 in Snow Light Snow
2:21 AM 28.4 °F 14.1 °F 28.4 °F 100% 29.92 in 1.0 mi East 24.2 mph 34.5 mph 0.00 in Snow Light Snow
2:31 AM 28.4 °F 14.7 °F 28.4 °F 100% 29.92 in 1.2 mi East 21.9 mph 32.2 mph 0.00 in Snow Light Snow
2:56 AM 28.9 °F 14.3 °F 28.0 °F 96% 29.93 in 1.5 mi ESE 26.5 mph 34.5 mph 0.00 in Snow Light Snow
3:22 AM 28.4 °F 14.4 °F 28.4 °F 100% 29.90 in 1.2 mi ESE 23.0 mph 32.2 mph 0.00 in Snow Light Snow
3:43 AM 28.4 °F 14.1 °F 28.4 °F 100% 29.89 in 1.0 mi ESE 24.2 mph 33.4 mph 0.00 in Snow Light Snow
3:49 AM 28.4 °F 13.3 °F 28.4 °F 100% 29.89 in 0.8 mi ESE 27.6 mph 33.4 mph 0.00 in Snow Light Snow
3:56 AM 28.9 °F 14.8 °F 28.0 °F 96% 29.91 in 0.8 mi East 24.2 mph 33.4 mph 0.00 in Snow Light Snow
4:21 AM - - - N/A% 29.88 in 0.8 mi ESE 20.7 mph 29.9 mph 0.00 in   Unknown
5:18 AM 30.2 °F 16.8 °F 28.4 °F 93% 29.86 in 1.0 mi East 23.0 mph 28.8 mph 0.00 in Snow Light Snow
5:28 AM 30.2 °F 17.1 °F 28.4 °F 93% 29.86 in 1.2 mi ESE 21.9 mph 29.9 mph 0.00 in Snow Light Snow
5:44 AM 30.2 °F 16.5 °F 28.4 °F 93% 29.86 in 1.8 mi ESE 24.2 mph 32.2 mph 0.00 in Snow Light Snow
5:56 AM 30.0 °F 16.0 °F 28.9 °F 96% 29.88 in 1.8 mi ESE 25.3 mph 31.1 mph 0.00 in Snow Light Snow
6:39 AM 30.2 °F 17.4 °F 28.4 °F 93% 29.85 in 2.5 mi East 20.7 mph 27.6 mph 0.00 in Snow Light Snow
6:56 AM 30.0 °F 17.5 °F 28.9 °F 96% 29.87 in 2.5 mi East 19.6 mph 25.3 mph 0.00 in Snow Light Snow
7:10 AM 30.2 °F 17.8 °F 28.4 °F 93% 29.85 in 3.0 mi ESE 19.6 mph 26.5 mph 0.00 in Snow Light Snow
7:56 AM 30.0 °F 17.2 °F 30.0 °F 100% 29.87 in 9.0 mi ESE 20.7 mph 26.5 mph 0.00 in Snow Light Snow
8:56 AM 30.0 °F 17.2 °F 28.9 °F 96% 29.86 in 1.8 mi ESE 20.7 mph 28.8 mph 0.00 in Snow Light Snow
9:19 AM 30.2 °F 17.4 °F 28.4 °F 93% 29.84 in 1.0 mi ESE 20.7 mph 27.6 mph 0.00 in Snow Light Snow
9:27 AM 30.2 °F 18.1 °F 28.4 °F 93% 29.84 in 0.8 mi ESE 18.4 mph 27.6 mph 0.00 in Snow Light Snow
9:42 AM 30.2 °F 18.1 °F 28.4 °F 93% 29.85 in 1.2 mi ESE 18.4 mph 24.2 mph 0.00 in Snow Light Snow
9:56 AM 30.0 °F 17.9 °F 28.9 °F 96% 29.87 in 1.8 mi ESE 18.4 mph 24.2 mph 0.00 in Snow Light Snow
9:58 AM 30.2 °F 17.1 °F 28.4 °F 93% 29.84 in 2.0 mi ESE 21.9 mph 25.3 mph 0.00 in Snow Light Snow
10:05 AM 30.2 °F 17.4 °F 28.4 °F 93% 29.85 in 3.0 mi ESE 20.7 mph 26.5 mph 0.00 in Snow Light Snow
10:48 AM 30.2 °F 18.5 °F 30.2 °F 100% 29.85 in 6.0 mi East 17.3 mph 26.5 mph 0.00 in Snow Light Snow
10:56 AM 30.9 °F 18.7 °F 30.0 °F 96% 29.86 in 5.0 mi East 19.6 mph - 0.00 in Snow Light Snow
11:18 AM 30.2 °F 18.1 °F 30.2 °F 100% 29.84 in 9.0 mi ESE 18.4 mph - 0.00 in Snow Light Snow
11:56 AM 30.9 °F 20.2 °F 30.0 °F 96% 29.87 in 8.0 mi ESE 15.0 mph - 0.00 in Snow Light Snow
12:23 PM 32.0 °F 22.5 °F 30.2 °F 93% 29.85 in 9.0 mi ESE 12.7 mph 20.7 mph 0.00 in Snow Light Snow
12:34 PM 32.0 °F 21.2 °F 30.2 °F 93% 29.85 in 7.0 mi ESE 16.1 mph - 0.00 in Snow Light Snow
12:48 PM 32.0 °F 21.2 °F 30.2 °F 93% 29.85 in 2.5 mi ESE 16.1 mph - 0.00 in Snow Light Snow
12:56 PM 32.0 °F 21.6 °F 30.9 °F 96% 29.87 in 2.5 mi East 15.0 mph - 0.00 in Snow Light Snow
1:07 PM 32.0 °F 22.1 °F 30.2 °F 93% 29.85 in 1.5 mi ESE 13.8 mph - 0.00 in Snow Light Snow
1:24 PM 32.0 °F 21.2 °F 30.2 °F 93% 29.85 in 2.5 mi ESE 16.1 mph - 0.00 in Snow Light Snow
1:33 PM 32.0 °F 20.5 °F 30.2 °F 93% 29.85 in 1.2 mi ESE 18.4 mph 24.2 mph 0.00 in Snow Light Snow
1:56 PM 32.0 °F 21.6 °F 30.9 °F 96% 29.88 in 2.5 mi ESE 15.0 mph 21.9 mph 0.00 in Snow Light Snow
2:11 PM 32.0 °F 20.8 °F 30.2 °F 93% 29.85 in 1.8 mi East 17.3 mph - 0.00 in Snow Light Snow
2:22 PM 32.0 °F 20.8 °F 30.2 °F 93% 29.85 in 2.5 mi ESE 17.3 mph - 0.00 in Snow Light Snow
2:25 PM 32.0 °F 21.2 °F 30.2 °F 93% 29.85 in 3.0 mi ESE 16.1 mph - 0.00 in Snow Light Snow
2:46 PM 33.8 °F 23.2 °F 32.0 °F 93% 29.85 in 9.0 mi ESE 17.3 mph - 0.00 in Snow Light Snow
2:56 PM 33.1 °F 23.0 °F 32.0 °F 96% 29.87 in 7.0 mi East 15.0 mph - 0.00 in Snow Light Snow
3:33 PM 33.8 °F 23.9 °F 32.0 °F 93% 29.84 in 9.0 mi East 15.0 mph - 0.00 in Snow Light Snow
3:56 PM 33.1 °F 22.2 °F 32.0 °F 96% 29.86 in 9.0 mi East 17.3 mph 23.0 mph 0.00 in Snow Light Snow
4:56 PM 34.0 °F 23.8 °F 32.0 °F 92% 29.86 in 10.0 mi East 16.1 mph - 0.00 in   Overcast
5:56 PM 34.0 °F 24.2 °F 32.0 °F 92% 29.86 in 10.0 mi ESE 15.0 mph 23.0 mph 0.00 in Rain Light Rain
6:56 PM 34.0 °F 23.0 °F 32.0 °F 92% 29.86 in 10.0 mi ESE 18.4 mph - 0.01 in Rain Light Rain
7:14 PM 33.8 °F 22.5 °F 32.0 °F 93% 29.84 in 9.0 mi East 19.6 mph 24.2 mph 0.01 in Rain Light Rain
8:08 PM 33.8 °F 23.5 °F 32.0 °F 93% 29.83 in 10.0 mi East 16.1 mph - 0.00 in Rain Light Rain
8:15 PM 33.8 °F 23.5 °F 33.8 °F 100% 29.83 in 10.0 mi East 16.1 mph 21.9 mph 0.00 in Rain Light Rain
8:56 PM 34.0 °F 23.4 °F 32.0 °F 92% 29.86 in 10.0 mi ESE 17.3 mph 24.2 mph 0.00 in Rain Light Rain
9:08 PM 33.8 °F 23.5 °F 33.8 °F 100% 29.83 in 10.0 mi ESE 16.1 mph - 0.01 in Rain Light Rain
9:42 PM 33.8 °F 24.8 °F 33.8 °F 100% 29.83 in 10.0 mi East 12.7 mph - 0.03 in Rain Light Rain
9:54 PM 33.8 °F 24.8 °F 33.8 °F 100% 29.83 in 10.0 mi East 12.7 mph - 0.03 in Rain Light Rain
9:56 PM 34.0 °F 25.0 °F 33.1 °F 96% 29.85 in 10.0 mi East 12.7 mph - 0.03 in Rain Light Rain
10:22 PM 33.8 °F 24.3 °F 33.8 °F 100% 29.83 in 10.0 mi East 13.8 mph - 0.00 in Rain Light Rain
10:54 PM 33.8 °F 23.9 °F 33.8 °F 100% 29.82 in 10.0 mi ESE 15.0 mph - 0.00 in   Overcast
10:56 PM 34.0 °F 24.6 °F 33.1 °F 96% 29.84 in 10.0 mi ESE 13.8 mph - 0.00 in   Overcast
11:14 PM 33.8 °F 23.5 °F 33.8 °F 100% 29.82 in 10.0 mi ESE 16.1 mph - N/A   Overcast
11:56 PM 34.0 °F 24.2 °F 33.1 °F 96% 29.84 in 10.0 mi ESE 15.0 mph 23.0 mph 0.00 in Rain Light Rain